Wind_Speed
5 4 2 0 2 5 7 10 10 10 10 10 11 11 11 13 15 13 13 16 19 19 17 17 15 13 12 11 10 13 12 13 16 18 20 21 22 23 24 26 27 28 30 31 32 33 34 35 35 35 35 35 35 34 33 33 36 40 42 44 44 43 44 43 40 38 38 38 39 39 39 38 37 37 37 37 37 37 36 33 33 35 36 38 39 41
4 2 0 3 5 7 8 9 9 9 9 10 10 11 11 14 15 11 11 16 18 16 17 18 16 15 13 9 10 13 11 13 17 19 21 22 23 24 25 26 27 28 30 31 32 32 33 34 34 34 35 35 34 34 33 34 37 40 42 43 43 44 44 44 44 44 44 44 45 46 44 42 40 39 38 38 38 38 37 35 32 32 35 37 38 39
3 1 3 4 6 8 8 8 8 8 9 10 9 10 12 13 14 11 11 17 16 15 18 18 18 19 12 9 13 13 11 15 18 19 21 23 24 25 26 27 28 29 30 31 32 32 32 33 33 34 34 34 35 34 34 35 37 39 41 42 43 44 44 45 46 48 50 51 51 51 49 47 44 42 40 40 40 39 39 38 36 33 33 35 36 37
2 1 3 4 6 7 8 8 9 9 10 10 9 11 12 12 14 13 14 16 14 14 17 16 21 20 8 10 16 12 12 17 19 20 22 23 24 25 26 27 28 29 30 31 31 32 32 33 33 34 34 34 35 35 36 37 38 39 40 41 42 43 44 45 45 47 49 50 50 49 49 48 46 44 43 42 41 41 41 41 40 37 35 35 37 37
3 2 2 3 5 5 7 8 9 10 11 10 11 12 14 14 15 16 17 15 13 13 13 17 21 12 4 14 17 10 12 18 19 21 22 24 25 26 27 28 29 30 30 31 32 32 33 33 33 34 35 36 36 36 37 38 38 39 40 41 43 43 44 44 45 45 45 46 46 46 46 46 46 45 45 45 44 42 42 42 42 41 38 37 38 38
2 2 1 2 3 5 6 8 10 11 12 11 12 14 15 16 17 18 16 12 11 10 12 16 12 5 10 18 13 10 14 17 19 21 22 25 26 26 28 28 29 30 31 32 32 33 34 34 34 35 36 37 37 37 38 39 39 40 41 42 43 44 44 44 45 45 45 44 44 44 45 45 45 45 46 46 46 45 44 44 43 43 41 40 39 39
3 3 1 1 2 5 7 10 11 12 13 11 13 15 15 17 19 17 13 10 9 8 11 11 4 8 20 20 11 12 15 16 20 21 22 25 26 27 27 28 29 30 31 32 33 34 34 35 35 36 37 38 39 39 40 40 41 41 42 42 43 43 44 44 44 45 45 44 44 43 44 44 45 45 45 45 46 47 46 46 45 44 44 42 41 41
4 5 3 2 3 5 9 11 11 13 13 12 14 15 15 18 18 14 10 8 9 10 11 9 6 10 18 17 14 14 15 18 20 21 23 25 25 27 27 28 29 30 31 32 33 34 35 36 37 37 38 39 40 41 41 42 42 42 42 42 43 43 44 44 45 45 45 45 44 44 43 43 44 45 44 44 44 45 46 47 47 46 45 44 43 42
6 6 5 5 5 7 11 12 12 14 12 12 14 15 17 18 14 11 9 8 9 10 7 9 9 7 13 18 15 13 17 20 20 21 23 24 26 27 27 28 29 30 31 32 33 35 35 36 37 38 39 40 41 41 42 43 43 43 43 43 43 43 43 44 45 46 46 46 45 45 45 44 44 45 45 45 43 43 44 45 46 47 46 45 45 44
7 7 7 8 8 9 11 11 13 14 12 13 14 15 19 15 11 9 8 8 8 7 6 8 6 3 12 19 11 11 20 20 20 22 22 24 26 27 28 29 30 30 31 33 35 35 36 37 37 38 39 40 41 42 42 43 43 43 43 43 43 44 44 44 44 45 45 45 45 45 46 45 45 45 46 46 45 44 43 43 44 46 47 46 44 44
7 8 8 9 9 10 11 12 14 14 13 14 13 15 16 11 9 7 7 7 6 4 5 6 6 3 7 14 11 13 20 21 22 23 23 27 28 28 29 29 30 32 32 34 35 36 37 37 38 39 40 41 42 43 43 44 44 45 44 44 44 44 44 44 44 45 45 45 45 45 45 45 46 46 46 47 47 46 45 44 43 44 46 47 45 44
8 8 9 10 10 10 11 12 15 14 13 14 13 14 12 7 7 5 5 3 1 3 4 6 8 6 7 12 15 16 21 24 23 23 25 28 29 30 30 30 32 32 33 34 35 36 37 37 38 39 41 42 42 43 44 45 45 45 45 45 45 45 45 45 44 45 45 44 44 44 44 44 45 45 46 47 48 48 47 46 44 44 44 46 47 46
9 9 9 9 9 10 9 12 15 14 13 12 13 14 10 4 5 3 3 2 3 5 5 6 6 9 16 19 17 19 24 25 21 22 26 29 31 32 32 31 33 33 34 36 36 37 37 37 39 40 41 42 43 44 45 45 46 46 46 46 45 45 45 46 45 45 45 44 44 43 43 43 43 44 45 45 47 47 48 47 46 45 45 45 46 47
7 8 9 8 9 9 9 12 13 13 13 12 12 14 8 2 4 2 3 3 5 7 7 10 8 10 19 20 21 25 26 21 19 22 27 30 32 34 34 33 34 34 36 37 37 38 38 38 40 41 42 43 44 45 46 46 47 47 47 46 46 46 45 45 46 45 45 45 44 44 43 43 44 43 44 44 45 46 47 48 47 47 46 46 46 47
5 6 7 7 8 9 10 12 13 13 13 11 11 11 5 1 2 3 3 2 5 9 10 12 7 7 13 21 28 28 21 16 19 24 27 31 33 35 36 35 35 36 37 38 39 38 38 39 40 42 43 43 44 45 46 46 47 47 47 47 47 46 45 45 46 46 46 46 45 44 44 44 44 44 44 44 44 45 47 47 48 47 47 47 47 47
6 7 7 7 9 11 11 12 14 13 10 9 11 9 6 3 3 5 5 7 7 9 10 10 11 14 21 31 31 21 17 18 21 25 29 32 34 36 38 38 37 37 37 39 39 39 39 40 41 42 43 44 45 46 46 47 47 47 48 48 48 47 46 46 45 46 46 46 46 45 45 44 44 44 44 45 45 45 46 47 48 48 47 47 47 47
6 7 9 10 10 12 13 13 13 12 9 9 11 9 7 6 5 5 6 7 4 4 7 9 15 23 26 31 28 19 19 22 22 27 32 33 35 37 38 39 38 37 38 39 40 39 40 40 42 44 44 45 46 46 47 47 47 48 48 48 49 48 47 47 46 45 45 46 46 46 45 45 44 44 44 45 46 46 47 47 48 48 48 48 48 47
8 10 12 12 11 13 14 14 14 13 12 11 10 9 7 6 5 4 3 2 2 1 7 11 19 24 20 22 29 27 24 25 26 30 33 34 36 37 39 39 38 38 39 40 41 40 40 42 43 44 45 46 47 48 48 48 48 48 48 49 49 49 49 48 47 46 45 45 45 45 46 46 45 45 44 45 46 47 48 48 48 49 49 49 48 48
9 10 12 12 11 12 14 15 15 14 14 13 11 10 8 5 4 4 2 1 2 1 5 13 20 24 25 28 33 34 31 30 28 31 34 36 38 38 40 40 38 39 39 40 42 41 41 43 44 45 46 47 48 49 49 48 49 49 49 49 49 49 49 49 48 47 46 45 44 44 45 45 46 46 45 45 45 46 47 48 49 49 49 49 49 48
9 8 9 12 12 12 15 16 16 15 14 13 13 12 11 9 8 8 6 4 3 2 3 10 12 21 34 38 38 38 36 32 28 32 36 37 38 40 41 40 39 39 40 41 42 42 42 43 44 45 46 48 49 49 49 49 49 49 49 49 49 49 49 48 48 48 47 46 46 45 44 44 45 46 46 45 45 45 46 47 48 48 48 49 49 48
10 9 9 13 14 13 15 15 16 16 14 15 16 15 14 12 10 10 11 12 8 3 2 1 6 28 45 43 41 40 37 34 31 32 36 38 40 42 41 41 40 40 41 42 43 43 43 44 45 46 47 48 49 49 49 49 49 50 50 49 49 49 48 48 48 48 48 48 47 47 45 44 44 45 46 46 46 45 45 46 46 47 47 48 48 48
10 10 13 16 18 17 17 17 18 19 17 18 19 18 18 16 12 7 7 14 14 9 8 3 5 36 53 45 42 42 37 38 36 34 39 42 41 43 43 43 42 41 43 44 44 45 44 44 45 46 48 49 49 49 49 49 49 49 49 49 49 49 48 48 48 48 48 48 48 48 47 46 45 45 46 46 46 46 46 46 46 46 46 47 47 47
12 13 16 19 19 18 17 19 22 22 21 20 20 21 21 20 20 13 6 11 13 13 17 7 6 35 56 47 43 43 41 44 44 43 46 44 42 45 45 44 43 43 45 45 46 46 45 45 46 47 49 49 49 50 49 50 49 49 49 49 49 49 48 48 48 47 48 48 49 49 48 48 46 46 46 46 46 46 46 46 46 45 46 46 46 45
12 12 15 18 19 19 20 22 23 23 22 21 21 22 22 24 26 21 17 18 14 16 20 7 5 35 56 50 46 48 49 50 50 51 50 43 43 46 45 45 43 43 46 47 47 47 46 46 47 48 50 50 50 50 50 50 49 49 49 49 49 49 48 48 47 47 48 48 48 49 49 49 48 48 48 47 47 46 45 46 46 45 45 45 45 44
12 13 15 14 13 14 15 14 16 18 19 19 20 19 22 27 27 25 26 22 16 27 28 9 9 40 58 54 53 53 51 51 49 49 47 42 43 46 46 45 43 44 47 48 48 48 47 47 48 49 50 50 50 51 50 50 50 49 49 49 49 49 48 48 47 47 48 48 48 49 49 49 50 50 49 48 48 47 45 45 45 45 44 44 44 43
17 19 19 14 8 8 11 13 16 20 18 17 19 20 24 28 27 27 25 18 17 29 29 17 23 51 63 57 54 53 50 48 46 43 43 41 42 46 47 44 43 45 48 49 49 48 47 48 49 49 50 50 51 51 51 51 50 50 50 49 49 48 47 47 47 47 47 47 48 49 49 50 50 51 51 50 48 47 45 45 45 44 44 43 43 42
21 24 25 24 23 23 25 27 28 29 27 24 24 26 29 30 30 28 23 25 30 30 30 37 49 59 62 57 51 50 47 45 44 41 41 42 43 46 46 44 45 47 49 49 48 47 48 48 49 49 50 51 51 51 51 51 51 50 50 50 49 48 48 47 47 47 47 47 49 50 50 51 51 52 52 51 49 46 45 44 44 44 43 43 42 41
24 28 29 29 32 34 34 34 33 35 36 35 31 32 34 33 33 34 34 41 44 28 27 51 60 55 59 58 52 50 45 40 41 41 40 41 43 44 45 44 46 48 48 48 47 47 47 48 48 50 51 51 52 51 51 51 51 50 50 49 48 48 48 47 47 47 47 48 49 50 51 52 52 51 50 49 48 45 43 43 43 43 43 42 41 40
25 30 32 32 35 36 34 34 35 37 39 39 36 37 39 38 39 43 47 52 48 36 40 60 60 54 59 57 52 49 42 37 39 39 38 40 41 42 43 45 47 47 46 46 46 46 47 48 50 51 51 52 52 52 51 51 51 50 50 49 48 48 48 48 48 48 48 49 50 51 52 52 51 50 48 47 46 44 42 42 42 42 42 41 40 39
24 30 33 33 37 39 36 36 37 38 41 40 38 40 42 42 43 47 53 54 50 51 57 61 58 57 57 53 50 45 38 38 40 37 37 40 41 42 44 45 46 46 45 45 46 47 49 50 51 52 52 53 52 52 52 51 50 50 49 49 48 48 48 48 48 48 49 50 51 51 51 51 50 48 46 45 44 43 42 41 41 41 41 40 39 38
25 29 32 34 39 42 41 39 38 38 37 35 39 46 46 45 46 48 52 51 47 52 55 53 54 58 54 50 47 42 39 41 40 38 40 43 43 44 45 46 46 45 46 47 48 49 50 51 52 52 52 52 52 52 51 50 50 50 49 49 48 48 48 48 48 49 49 50 50 51 51 50 49 47 46 45 44 43 42 41 40 40 39 40 39 38
26 29 33 33 33 40 43 39 37 37 32 34 45 50 46 42 42 41 43 45 44 47 48 46 50 54 53 49 46 45 43 43 41 42 45 46 46 46 46 47 47 47 48 49 50 51 51 52 52 52 52 52 51 51 50 50 50 50 50 49 48 48 48 47 48 48 49 50 50 50 49 48 47 46 46 45 43 42 41 40 40 38 38 39 39 38
28 29 33 28 26 38 43 37 39 37 28 33 44 42 37 36 36 39 45 50 49 47 45 45 50 54 54 51 49 47 44 43 44 46 48 49 49 48 47 48 49 50 51 51 51 52 52 52 52 51 51 51 51 50 50 50 51 50 50 49 48 48 47 47 47 48 49 49 49 49 48 47 47 46 46 44 42 41 40 39 39 38 37 37 38 38
30 30 32 27 25 35 42 41 40 30 18 26 39 40 40 43 43 44 48 51 50 47 45 48 54 56 53 50 48 45 43 45 47 50 51 50 49 48 48 50 51 52 52 52 52 52 52 52 51 51 52 51 51 50 50 50 50 50 49 48 47 47 46 46 47 47 48 48 48 47 46 46 46 46 45 44 42 41 39 38 37 37 36 36 37 36
31 30 31 29 26 34 43 36 22 14 22 36 44 46 48 47 42 42 45 49 49 47 48 53 55 53 50 47 46 45 47 49 51 54 54 51 49 48 50 52 53 53 53 54 54 53 53 53 52 52 52 51 50 50 49 49 50 49 48 47 46 46 46 46 46 47 47 47 46 46 45 44 45 45 44 43 41 40 38 36 35 35 36 36 35 35
29 28 29 30 28 29 29 17 9 22 46 53 48 45 44 40 37 39 45 52 52 49 52 54 51 49 48 47 48 48 49 52 55 57 55 51 49 50 52 55 55 54 56 56 56 55 54 54 53 53 52 51 50 49 49 48 48 48 47 46 46 46 45 45 46 46 46 45 45 44 43 43 43 43 42 41 40 39 37 35 33 33 34 35 34 33
25 26 29 28 25 23 23 23 28 38 48 50 44 41 42 42 43 43 46 54 56 50 49 49 47 49 51 50 51 50 51 55 58 58 55 51 51 54 56 57 56 56 58 58 57 57 55 54 54 53 52 51 49 48 48 48 47 47 46 45 45 45 45 45 45 46 45 44 43 42 42 41 42 42 41 40 39 37 36 34 32 31 32 34 33 32
22 24 27 24 22 22 21 22 22 19 26 38 42 42 44 45 45 45 47 56 56 46 43 47 51 54 54 52 51 52 54 56 58 58 55 52 55 58 58 57 57 58 59 59 57 56 54 54 54 53 52 50 48 47 47 47 46 46 45 45 45 45 44 44 45 44 43 42 41 41 40 40 41 41 40 39 38 36 34 33 31 30 31 32 32 31
20 23 26 26 27 27 22 15 9 11 26 44 47 44 43 41 44 45 42 47 52 46 46 53 55 53 53 51 51 52 53 55 58 57 54 53 56 58 57 56 57 57 59 58 56 55 53 54 54 53 52 49 47 47 46 46 46 45 44 44 44 44 44 44 44 44 42 41 40 39 39 39 40 40 40 39 37 35 33 31 30 30 30 30 31 30
21 22 26 28 31 33 29 22 19 26 40 48 43 39 39 41 46 37 23 34 52 52 50 54 52 50 51 48 48 49 51 54 56 54 52 53 54 55 54 55 55 57 58 57 55 54 53 54 54 53 51 49 47 46 45 45 45 44 44 44 44 44 44 44 43 43 42 41 39 38 38 39 39 39 38 37 36 34 32 31 30 29 29 29 30 29
24 24 25 27 30 32 31 27 29 39 46 42 35 38 44 45 40 26 22 41 57 54 50 51 49 50 49 46 47 49 50 51 53 52 52 51 52 52 52 53 55 57 58 56 54 53 53 54 54 52 49 48 46 45 44 45 44 43 43 44 43 43 44 43 42 42 41 40 39 38 38 38 38 38 37 36 36 34 32 31 30 29 29 29 29 29
25 23 23 24 25 26 27 26 28 34 38 37 38 46 48 42 36 35 43 54 55 51 51 51 50 51 49 48 49 50 50 52 52 51 51 51 51 51 52 53 56 57 57 55 53 53 54 54 53 50 48 46 45 44 44 44 44 43 43 43 43 43 43 42 42 41 40 39 38 37 37 37 37 37 36 35 35 34 32 31 31 30 29 29 29 28
26 22 22 24 22 19 19 16 14 21 34 41 45 47 45 42 42 47 52 53 51 52 53 51 52 52 50 50 51 50 51 52 51 51 52 51 51 52 52 54 57 57 55 54 53 53 53 52 51 48 46 44 43 43 43 43 43 43 43 43 43 43 43 42 41 40 39 38 38 37 37 37 37 36 35 34 34 33 32 31 31 30 30 30 29 29
26 24 24 26 23 21 21 19 21 31 40 42 42 41 42 44 47 50 53 54 56 56 54 53 54 53 50 50 50 49 51 51 51 52 52 51 52 52 54 57 57 56 54 53 53 52 51 50 49 47 44 43 42 42 42 42 43 43 43 43 43 43 43 41 40 40 38 38 38 37 37 37 36 35 35 34 33 32 31 31 31 31 30 30 30 30
29 29 30 31 30 30 32 35 37 39 39 37 39 42 44 48 52 55 56 56 58 57 56 55 55 53 51 49 48 49 51 50 51 52 51 51 53 54 57 58 56 55 54 52 51 50 49 49 47 44 42 41 40 41 41 42 42 43 43 43 43 43 43 41 40 40 38 37 37 37 37 36 36 35 35 34 33 32 31 31 31 31 30 30 31 31
34 33 33 34 34 35 38 40 38 37 38 40 42 45 50 55 59 59 57 56 57 58 56 55 55 54 52 49 48 49 51 51 52 52 51 53 56 58 59 57 55 53 53 51 50 49 48 47 44 42 41 40 39 41 41 41 42 43 43 43 43 43 42 42 41 40 38 37 37 36 36 36 35 34 34 33 33 32 31 31 31 30 31 31 31 31
34 33 33 33 31 32 37 39 38 40 44 45 47 51 56 59 60 59 57 57 58 57 57 57 56 54 52 50 49 50 52 52 51 51 53 57 60 59 57 55 53 53 52 50 49 47 46 45 42 41 41 40 39 41 41 41 42 43 43 43 43 43 43 42 41 40 38 37 37 36 36 36 35 34 34 33 33 32 31 31 31 30 30 31 32 32
32 30 29 29 29 31 35 38 40 44 47 48 52 57 59 59 60 61 59 57 56 57 57 57 57 55 54 52 51 51 52 51 52 55 59 60 59 57 55 54 54 53 50 49 47 46 44 42 41 40 40 40 40 41 41 42 42 42 43 43 43 43 43 42 41 40 38 37 37 36 36 36 35 35 34 33 32 32 31 31 31 30 30 30 32 33
25 23 23 26 31 35 37 39 45 50 54 54 57 61 63 63 63 62 59 57 56 57 57 57 57 56 54 52 51 51 52 54 57 60 60 58 56 56 55 54 53 51 49 47 45 43 42 41 40 40 40 40 41 42 42 42 42 42 43 43 43 43 43 42 41 40 38 38 37 36 36 36 35 35 34 33 32 32 31 31 31 31 30 30 31 33
18 19 21 26 33 38 40 44 50 55 59 62 63 65 64 63 61 60 58 57 57 56 57 57 56 54 52 51 51 53 56 59 60 59 58 57 56 56 55 53 51 49 46 44 42 42 41 40 40 40 40 41 42 43 43 42 42 42 43 43 43 43 43 42 41 40 39 38 37 36 36 36 35 35 35 34 33 32 31 31 31 32 31 30 31 32
14 17 21 26 34 41 44 47 51 56 61 64 63 62 60 58 57 57 56 56 55 55 54 54 53 52 52 52 54 57 60 60 58 57 57 57 56 54 53 50 48 45 43 42 41 41 40 40 40 40 41 42 43 43 43 43 42 43 43 43 44 43 42 42 41 40 39 38 37 37 36 35 35 35 34 34 34 33 32 32 31 31 32 32 32 31
Wind_Direction
302 299 305 103 47 31 31 27 22 15 3 355 350 346 344 340 340 335 325 329 331 328 328 327 321 319 322 319 327 336 334 338 343 345 348 349 348 348 349 349 350 350 349 348 347 346 345 344 342 340 339 337 334 332 328 321 317 316 317 318 317 315 313 308 303 303 305 306 306 304 300 296 295 295 296 295 294 293 294 292 286 277 268 264 262 261
307 289 101 61 45 36 31 23 12 3 354 346 341 341 340 340 342 334 322 326 328 323 322 321 316 318 321 318 328 331 326 335 342 345 347 347 348 348 348 348 348 348 347 346 345 344 343 341 339 337 335 333 331 329 324 318 315 315 315 315 314 312 310 307 302 300 301 303 305 305 303 299 297 296 297 297 295 294 293 293 290 281 272 266 262 259
313 10 87 62 41 34 23 8 358 349 341 337 339 342 343 345 343 333 320 321 320 317 319 319 315 316 317 324 332 327 324 334 340 344 345 345 347 347 346 346 346 346 345 344 343 341 340 338 336 334 332 330 328 326 323 319 316 315 314 314 313 312 310 307 303 300 299 300 302 302 300 299 296 294 295 297 297 296 295 294 293 288 280 274 269 264
290 87 87 63 44 30 11 354 340 334 336 337 341 347 348 347 341 330 321 316 310 313 318 315 313 311 310 336 333 323 324 334 339 342 342 343 345 345 345 345 344 344 343 341 340 338 336 335 333 332 330 328 327 325 323 320 319 317 316 316 315 314 313 311 308 305 302 301 301 300 298 296 294 292 291 292 294 295 294 293 292 290 286 282 278 274
273 161 100 62 46 22 2 340 322 329 342 342 345 350 346 343 338 328 321 312 307 314 315 316 318 306 299 338 332 318 326 333 337 339 340 341 343 344 343 343 342 341 340 338 337 335 334 333 331 330 329 327 327 325 324 322 321 320 319 319 318 317 316 315 313 311 308 306 303 301 299 296 292 290 287 286 287 289 289 289 288 287 285 282 280 280
259 184 152 84 38 3 343 319 313 330 344 344 346 349 343 339 335 326 317 307 307 314 314 324 334 295 308 332 330 316 327 333 335 337 339 340 340 342 341 340 340 338 336 335 334 333 331 331 330 329 328 327 326 325 324 324 323 322 322 321 320 319 318 317 316 314 312 310 308 304 301 298 294 290 287 285 283 283 285 286 286 286 285 283 280 280
248 223 222 118 10 343 321 313 321 336 344 347 346 343 338 333 330 322 309 299 301 306 308 318 335 291 310 328 330 318 328 332 334 336 336 337 337 338 338 336 336 335 333 332 330 330 329 328 328 328 327 326 326 326 325 324 324 323 323 322 320 319 318 317 316 315 314 313 311 309 305 302 299 295 292 289 286 284 284 284 285 285 285 284 282 280
255 246 249 249 302 322 312 316 332 341 348 351 341 336 334 331 327 315 301 292 296 304 298 288 289 291 301 320 326 317 326 331 331 333 332 332 332 334 334 333 332 331 329 328 326 326 326 326 326 326 325 325 325 325 325 324 324 323 322 321 321 319 318 318 317 316 315 314 313 311 309 306 303 300 297 295 292 288 285 284 284 284 284 284 283 281
253 254 254 254 274 303 311 322 338 343 347 345 337 334 335 331 321 308 296 289 302 307 275 261 290 296 289 308 322 316 323 330 328 328 328 327 328 329 330 328 328 327 326 324 324 324 325 324 324 323 323 323 323 323 323 322 322 321 321 321 321 320 319 318 317 316 316 315 314 312 311 308 305 303 301 299 296 293 290 286 285 284 284 284 283 281
246 256 257 261 276 295 313 330 338 340 342 341 339 337 336 328 311 306 285 281 307 300 249 253 288 326 300 305 315 315 321 325 322 324 324 323 324 325 326 326 325 325 323 323 323 323 323 322 322 322 321 321 321 321 321 320 320 320 320 320 320 320 319 318 316 316 315 314 314 312 310 309 306 304 302 301 299 297 294 290 287 285 283 284 283 282
250 260 266 275 283 295 315 333 337 338 337 338 342 340 337 322 303 300 264 275 318 292 243 241 267 323 307 301 309 315 319 320 317 320 321 321 322 323 324 325 324 324 322 322 322 322 322 321 321 320 319 320 320 320 319 319 319 319 319 320 320 319 318 317 316 314 314 313 312 311 309 307 306 304 302 301 300 298 297 294 291 287 284 283 282 282
259 262 275 280 280 297 319 332 334 332 332 336 340 343 342 317 302 294 250 269 346 270 250 232 269 291 262 287 310 315 318 318 313 316 320 320 321 322 323 324 324 323 322 322 322 321 321 320 319 318 318 319 318 317 317 317 317 317 318 319 318 318 317 316 315 314 313 312 311 309 307 306 304 303 302 300 299 299 297 295 293 290 287 284 283 282
266 265 277 279 282 299 314 327 328 322 327 334 335 348 356 341 342 326 250 293 241 248 261 250 282 284 267 285 308 313 316 313 305 312 319 319 320 320 321 323 323 322 321 321 321 320 320 319 318 318 318 318 317 316 316 316 316 316 316 317 317 317 316 316 315 314 312 311 310 308 306 305 303 301 300 299 298 297 296 295 294 292 289 285 283 282
270 269 272 274 281 283 293 318 324 316 325 332 338 358 15 52 31 318 273 314 274 262 261 263 287 281 274 295 314 315 315 306 299 310 316 318 320 319 319 322 323 322 321 321 320 320 319 319 318 318 318 318 317 316 316 316 316 315 315 315 315 315 315 315 314 313 312 311 309 308 307 305 304 302 300 299 297 296 295 294 293 292 290 287 284 282
257 267 268 267 268 268 286 313 320 316 322 328 341 360 9 109 120 245 255 251 283 300 280 263 264 249 273 307 316 316 313 301 302 311 315 318 320 317 318 320 322 322 321 319 319 319 319 319 318 317 317 317 316 316 316 316 315 315 314 314 314 314 314 314 313 313 312 311 310 309 308 306 305 303 302 300 298 296 294 293 292 291 290 288 286 283
254 266 280 285 278 276 284 301 315 321 321 321 332 339 332 309 219 223 260 261 281 314 291 253 241 254 288 309 314 317 315 308 311 312 314 319 319 317 316 318 320 320 319 317 317 318 318 317 316 316 316 315 315 315 315 316 315 314 314 313 312 313 313 313 313 312 312 311 311 310 309 308 306 304 303 301 298 296 294 293 292 290 289 288 286 284
262 275 295 300 286 276 277 287 307 318 308 305 315 315 317 314 265 235 269 277 285 313 286 262 262 277 298 312 317 323 317 314 316 314 316 319 319 316 314 315 317 318 318 316 316 318 317 316 315 315 314 314 313 314 315 315 315 314 314 313 312 312 312 312 312 312 311 311 311 310 310 308 307 304 302 300 298 296 294 292 291 289 288 287 285 284
277 286 296 296 281 272 269 276 295 305 295 289 295 299 308 315 294 259 262 315 27 283 277 271 274 285 293 303 316 323 316 317 318 313 315 320 319 316 312 313 316 317 318 316 316 317 316 315 314 313 313 312 312 313 314 315 315 314 314 313 312 312 312 312 312 312 311 311 310 310 309 308 306 304 301 299 297 295 293 291 290 288 287 286 285 283
288 290 295 292 280 273 267 270 287 295 286 278 278 282 284 280 267 250 229 309 313 261 285 281 282 286 281 288 312 322 318 319 316 308 313 320 319 315 311 311 314 316 317 316 315 316 315 314 313 312 312 311 311 312 313 314 314 313 313 313 313 312 312 312 311 311 311 310 309 308 307 306 305 303 301 299 296 294 292 291 289 288 286 285 284 282
290 283 287 291 285 276 268 268 276 281 278 271 268 267 267 262 253 249 228 211 235 188 274 294 294 289 291 299 312 319 319 317 310 305 312 320 320 315 309 309 312 315 316 315 315 314 314 313 311 311 310 309 310 312 312 312 312 312 312 312 312 312 311 311 311 311 311 310 309 308 306 305 304 302 301 299 296 294 292 290 288 287 285 284 283 282
283 268 271 284 285 276 269 269 273 277 273 264 263 261 258 257 252 260 258 241 233 185 197 319 286 284 297 309 312 315 319 313 304 302 310 320 320 315 309 307 309 314 315 315 314 313 313 312 311 310 308 308 310 311 311 311 310 310 311 311 312 312 311 311 311 310 310 309 308 308 306 305 303 302 300 298 297 295 292 290 289 287 286 284 283 282
279 268 267 276 282 279 275 277 278 278 272 265 265 261 260 260 247 248 267 247 231 214 225 181 249 283 298 311 310 313 316 310 304 301 308 318 320 314 309 306 307 311 314 314 312 312 312 312 311 309 308 309 310 310 310 309 309 309 310 310 310 311 311 311 310 309 308 308 308 307 307 306 304 302 300 298 297 296 294 292 290 288 286 284 283 282
279 273 272 277 284 284 278 278 276 275 272 266 264 263 261 258 247 238 240 251 243 232 241 222 227 285 301 310 308 310 311 309 309 305 308 315 315 311 308 305 305 309 313 313 311 312 313 311 310 308 309 310 310 309 308 307 308 309 309 310 309 310 311 310 309 308 307 307 307 308 307 306 305 302 300 299 297 296 294 292 290 289 287 285 283 281
279 274 278 285 288 284 277 276 274 273 269 263 265 266 262 261 260 257 253 257 262 248 242 201 205 282 300 309 305 307 309 309 311 310 311 313 310 310 308 304 305 308 311 312 311 312 313 311 310 309 309 310 309 308 308 308 309 309 309 309 309 309 310 309 308 307 307 307 308 308 308 306 305 303 301 299 297 295 293 292 291 289 287 285 283 281
280 274 278 289 301 297 286 281 276 274 269 264 267 268 267 267 263 258 255 252 259 261 253 198 216 279 299 306 303 306 308 309 313 313 312 312 307 308 308 305 306 308 310 311 311 312 312 310 309 309 309 309 308 308 309 309 310 310 309 309 308 309 309 308 308 307 307 308 308 308 308 307 306 304 302 299 297 295 293 291 290 288 287 285 283 281
279 274 273 273 274 276 278 286 290 289 283 271 271 275 275 273 264 260 257 239 243 261 253 224 249 281 298 304 302 306 308 309 315 315 311 310 305 306 307 306 306 308 310 311 311 312 311 308 308 308 308 308 308 309 310 310 311 310 309 309 308 309 309 308 308 307 307 308 308 308 308 307 307 305 302 300 297 295 292 290 288 287 286 284 283 282
278 277 278 273 266 268 279 288 291 290 286 277 279 284 281 279 273 262 247 239 252 256 252 262 272 280 293 303 305 307 309 311 315 314 310 307 304 305 307 306 307 309 310 311 312 311 309 308 308 308 309 309 309 310 311 311 311 310 309 309 309 309 309 309 308 308 308 309 309 310 310 309 308 305 303 301 298 295 292 289 287 285 284 284 283 282
280 281 283 280 278 281 287 290 287 285 284 280 282 286 283 281 274 260 252 259 264 253 257 281 285 279 286 301 307 307 312 314 312 311 308 306 305 305 306 306 307 309 310 311 311 309 308 308 309 309 310 310 310 311 311 312 311 311 310 309 310 309 309 309 309 309 310 311 311 312 311 310 308 306 304 302 300 297 293 289 287 285 283 283 283 282
282 283 287 287 287 288 289 291 288 284 283 281 282 285 283 280 274 268 270 273 267 256 269 286 290 283 287 300 307 309 314 313 309 310 308 307 307 306 305 306 308 310 311 312 310 309 309 309 310 311 311 311 311 312 312 312 312 311 310 310 310 310 311 310 310 311 311 312 313 313 312 310 309 306 305 304 302 299 294 289 286 284 283 282 283 282
280 283 289 290 290 293 293 293 292 287 284 283 284 288 285 280 277 276 279 281 269 264 277 287 287 286 295 306 311 314 313 308 307 309 308 309 309 307 307 309 311 312 312 311 310 310 310 311 312 312 312 312 312 312 312 313 312 312 311 311 312 312 312 311 311 312 313 313 314 313 311 310 309 307 307 306 304 300 296 291 286 284 283 282 282 282
281 282 289 291 291 296 298 297 295 290 288 287 290 294 291 285 283 282 284 284 271 268 284 291 281 285 304 316 314 311 308 307 307 307 310 313 311 311 312 313 314 314 312 311 312 311 312 312 312 312 312 313 313 313 314 314 314 313 313 313 313 313 312 312 312 312 313 314 314 312 311 310 310 309 308 307 304 300 296 292 288 286 284 283 282 282
283 281 288 291 289 293 298 300 296 293 294 294 295 300 301 294 291 291 293 294 286 283 291 288 279 291 312 317 311 308 308 306 305 306 311 314 314 315 316 316 315 314 313 313 313 312 312 312 312 313 313 314 314 315 316 316 315 314 314 314 314 313 312 311 312 312 313 313 313 312 311 311 310 310 309 308 305 300 296 293 290 287 285 283 282 282
286 283 286 287 283 290 296 296 295 298 302 298 299 307 311 305 301 302 303 303 300 295 293 289 292 306 316 312 309 311 310 305 304 307 311 313 316 318 317 316 316 315 315 315 313 313 313 313 314 314 315 316 317 317 318 317 315 314 314 314 313 312 311 311 311 312 312 313 312 312 312 312 311 310 310 308 305 301 297 294 291 288 286 283 282 282
287 284 284 281 278 286 292 294 297 300 296 296 306 314 311 306 305 304 305 308 306 301 301 303 307 313 315 314 315 316 312 308 307 308 309 312 316 319 317 317 317 316 316 315 314 314 314 314 315 316 317 318 319 319 318 316 315 313 313 313 312 311 310 311 311 312 312 312 313 313 313 312 311 311 310 309 306 302 299 296 293 290 286 283 282 281
287 285 281 278 274 280 290 296 301 296 287 296 306 310 307 307 308 306 308 312 311 308 308 309 311 315 318 319 318 317 315 313 309 307 308 312 316 318 317 316 317 317 317 316 316 316 316 317 318 318 319 320 320 319 318 315 313 312 312 312 311 310 310 310 311 311 312 313 313 313 312 311 311 311 310 309 306 302 300 297 293 290 287 284 282 281
289 285 280 278 275 279 287 287 269 286 295 301 308 311 312 314 315 312 312 313 313 313 312 312 315 319 320 318 317 317 316 313 309 307 308 312 315 316 315 315 316 317 317 318 318 318 318 318 319 319 320 320 319 318 316 313 312 311 311 312 311 310 310 310 311 311 312 313 313 312 311 311 310 310 310 309 306 303 300 297 293 289 286 284 283 283
292 287 282 277 273 275 275 270 275 287 297 305 314 319 320 318 317 316 312 310 314 318 318 318 320 319 318 318 317 316 314 311 307 306 309 313 314 313 314 315 316 316 318 319 319 318 318 318 318 319 319 319 318 317 314 312 311 310 311 311 310 309 310 311 311 311 312 313 312 311 311 310 310 310 310 309 306 303 300 297 294 289 286 284 284 284
292 288 283 273 267 271 268 274 287 289 294 305 314 319 320 318 318 315 307 307 316 325 324 321 320 317 317 318 315 313 312 309 304 306 312 313 311 312 313 314 315 316 318 319 318 317 317 317 317 318 317 317 317 315 312 311 310 310 311 310 309 309 310 310 311 311 312 312 311 311 311 310 310 310 311 310 307 304 301 298 295 291 287 285 285 284
295 291 281 266 262 264 258 262 274 257 283 305 315 319 320 320 318 314 304 305 318 328 324 320 318 316 315 315 312 311 310 305 303 306 311 310 309 311 312 312 314 315 316 317 317 316 316 316 316 316 316 317 315 313 311 310 309 310 310 309 309 309 310 310 311 311 312 312 312 311 311 310 310 311 311 311 308 305 302 299 295 292 289 287 287 285
302 296 280 266 265 266 258 255 260 268 289 309 319 321 323 322 319 314 300 306 319 323 320 317 316 313 312 312 310 308 304 302 302 305 308 308 308 310 310 311 313 314 315 316 315 315 315 314 315 315 316 315 314 312 311 309 309 310 310 309 309 309 309 310 311 311 312 312 312 311 310 309 310 310 311 311 309 306 303 299 296 293 291 289 288 286
304 298 284 274 275 272 259 251 262 281 300 317 325 324 325 323 316 304 295 309 316 317 316 315 312 311 312 312 308 305 302 301 303 305 307 308 308 308 309 310 311 313 314 315 314 313 314 313 314 315 314 313 312 311 310 309 309 309 309 309 310 309 310 311 311 311 312 312 312 311 309 308 308 309 310 310 309 307 304 300 297 295 292 290 288 287
303 298 288 283 284 279 268 258 264 285 308 325 326 323 323 318 308 303 307 313 316 315 315 315 312 312 313 311 308 305 303 303 304 306 307 308 307 307 308 309 311 313 313 313 312 312 312 313 313 313 312 312 311 310 309 308 308 309 309 310 310 309 310 311 311 311 312 312 311 309 308 307 307 308 309 309 309 308 305 301 298 296 294 292 289 287
300 293 289 292 295 292 280 264 266 295 313 322 322 319 318 313 312 316 320 321 322 321 320 317 314 314 314 311 309 306 304 304 305 306 307 307 307 307 308 310 312 312 312 312 311 311 312 312 312 311 311 310 309 308 308 308 308 309 309 310 310 310 310 311 311 311 311 310 309 308 307 306 307 308 308 308 307 307 305 302 298 296 294 292 290 288
301 296 297 299 300 295 284 279 292 306 314 321 323 321 319 319 324 328 327 325 323 323 321 318 314 313 313 311 309 306 304 305 306 307 307 307 307 309 310 311 312 312 312 312 311 311 312 311 310 310 310 309 308 307 307 308 309 310 310 310 310 309 310 310 311 311 311 309 308 307 305 305 306 306 306 306 305 305 304 302 298 296 295 292 291 289
306 306 305 302 302 301 296 296 305 313 321 328 327 325 326 327 328 328 325 322 320 319 318 316 313 311 310 308 306 305 306 307 308 307 307 308 310 312 312 313 313 312 312 312 312 311 310 309 309 310 309 308 308 307 308 309 310 310 310 310 310 309 309 310 311 311 310 309 307 306 304 304 304 305 304 304 303 303 303 301 298 296 295 293 291 289
310 310 309 307 310 310 304 304 312 318 323 328 327 327 329 329 327 326 324 320 317 316 315 314 313 311 309 307 306 306 308 308 308 308 309 311 313 314 314 314 313 312 312 312 312 311 309 309 309 309 308 309 308 308 309 310 310 310 310 310 309 309 309 310 311 311 310 308 306 305 304 303 303 303 302 302 301 301 301 300 298 296 294 292 290 289
313 314 313 312 314 313 307 308 315 317 318 324 327 327 328 328 326 325 322 319 317 315 314 314 313 311 309 308 307 308 309 309 310 311 312 314 314 315 314 314 313 313 313 312 311 310 309 309 309 309 309 309 309 309 309 311 311 311 310 309 309 309 309 310 311 310 310 308 306 304 303 302 302 301 301 300 300 299 298 298 296 295 293 291 289 288
317 318 318 313 311 310 308 314 320 315 312 319 325 327 328 328 324 322 320 319 317 314 313 313 313 312 311 310 310 310 311 312 313 313 315 315 315 315 315 314 314 314 313 313 312 310 309 309 309 309 310 310 310 309 310 311 312 311 310 309 309 309 310 310 310 310 309 307 305 304 302 301 301 300 299 298 297 296 295 295 293 293 292 291 289 288
324 322 320 312 308 308 311 320 325 319 314 317 323 325 325 324 322 321 321 319 317 315 314 314 314 314 314 313 313 313 313 313 314 315 316 317 317 316 316 315 315 315 314 313 311 310 310 310 310 310 311 311 310 310 311 313 313 311 310 309 309 309 310 310 309 309 308 306 305 303 302 300 300 299 298 296 295 294 293 292 291 290 290 289 288 288
332 323 320 317 316 317 319 324 329 326 321 321 323 324 323 323 322 321 321 321 320 319 317 316 315 315 314 314 314 314 314 315 316 317 317 317 317 317 317 316 315 315 314 313 311 311 311 311 311 311 311 310 310 311 312 313 313 311 310 309 309 309 309 309 308 308 307 306 304 302 301 300 299 298 296 295 294 292 291 290 290 290 289 287 285 286
329 320 321 324 323 321 321 324 325 325 323 322 323 324 324 324 323 323 323 322 321 320 318 317 317 316 315 314 314 315 316 317 318 318 318 318 318 317 317 317 316 315 314 313 312 312 312 311 311 312 311 310 311 312 313 313 313 311 309 308 309 308 308 308 308 307 306 305 304 302 301 300 298 297 295 294 293 292 290 289 288 288 288 287 285 284
Height
3117 3117 3116 3116 3116 3115 3115 3115 3115 3115 3115 3114 3114 3113 3112 3111 3110 3109 3107 3106 3105 3103 3102 3102 3101 3100 3100 3098 3097 3096 3095 3095 3094 3092 3091 3089 3088 3087 3085 3083 3080 3078 3076 3074 3072 3070 3068 3066 3064 3062 3060 3058 3057 3055 3054 3052 3050 3048 3046 3044 3042 3040 3038 3036 3035 3033 3031 3030 3029 3028 3026 3024 3022 3020 3018 3016 3014 3013 3012 3011 3010 3009 3009 3009 3009 3010
3116 3116 3115 3115 3115 3115 3115 3115 3115 3115 3114 3114 3113 3112 3111 3110 3108 3107 3106 3104 3103 3101 3100 3099 3098 3097 3097 3096 3095 3094 3093 3092 3091 3090 3088 3087 3085 3083 3081 3079 3077 3075 3073 3071 3069 3067 3065 3063 3061 3059 3058 3056 3054 3053 3052 3050 3048 3046 3043 3041 3038 3036 3034 3032 3031 3029 3027 3025 3023 3022 3021 3020 3018 3016 3014 3012 3010 3009 3008 3007 3006 3005 3005 3004 3004 3004
3115 3115 3115 3114 3114 3114 3114 3114 3114 3114 3114 3113 3112 3111 3110 3108 3106 3105 3104 3102 3101 3099 3098 3096 3094 3094 3094 3093 3092 3091 3090 3090 3088 3087 3085 3084 3082 3080 3078 3076 3074 3072 3070 3068 3066 3064 3062 3061 3059 3057 3055 3053 3052 3050 3049 3047 3045 3043 3040 3038 3036 3033 3031 3028 3026 3024 3022 3020 3019 3017 3015 3015 3014 3012 3010 3008 3006 3004 3003 3002 3001 3001 3000 3000 2999 2999
3115 3114 3114 3114 3114 3114 3114 3114 3114 3114 3113 3112 3111 3110 3108 3107 3105 3103 3102 3100 3099 3097 3096 3094 3091 3090 3091 3090 3089 3088 3087 3087 3085 3084 3083 3081 3080 3078 3076 3073 3071 3069 3067 3066 3064 3062 3060 3058 3057 3055 3053 3051 3049 3047 3045 3043 3041 3039 3037 3035 3032 3030 3027 3025 3022 3020 3018 3016 3014 3012 3010 3009 3008 3007 3006 3004 3003 3001 2999 2998 2997 2997 2996 2995 2995 2994
3114 3114 3114 3114 3114 3114 3114 3114 3113 3113 3112 3110 3109 3108 3106 3104 3103 3101 3099 3098 3097 3096 3094 3092 3089 3086 3087 3088 3086 3086 3085 3084 3083 3082 3080 3078 3076 3074 3072 3070 3068 3066 3065 3063 3061 3060 3058 3056 3054 3052 3050 3048 3046 3045 3042 3040 3038 3036 3033 3031 3028 3026 3023 3021 3018 3016 3013 3011 3009 3007 3006 3004 3003 3002 3001 3000 2999 2997 2995 2994 2992 2992 2992 2991 2990 2990
3113 3114 3113 3113 3113 3113 3114 3114 3113 3112 3110 3109 3107 3105 3104 3102 3101 3099 3097 3096 3095 3094 3092 3091 3088 3084 3084 3085 3084 3083 3083 3081 3080 3079 3077 3075 3073 3072 3069 3067 3066 3064 3062 3060 3058 3057 3055 3053 3051 3049 3047 3045 3043 3041 3039 3037 3034 3032 3029 3027 3025 3022 3020 3017 3014 3011 3009 3006 3004 3002 3000 2998 2997 2996 2995 2994 2993 2992 2990 2989 2988 2987 2986 2986 2986 2985
3113 3113 3113 3113 3113 3113 3113 3113 3112 3110 3108 3107 3105 3103 3102 3100 3099 3097 3096 3095 3094 3093 3091 3091 3090 3085 3080 3081 3081 3080 3080 3079 3077 3076 3074 3073 3071 3069 3067 3065 3063 3061 3059 3057 3056 3054 3052 3050 3048 3046 3044 3041 3039 3037 3035 3032 3030 3028 3025 3023 3021 3018 3015 3013 3010 3007 3005 3002 3000 2998 2995 2993 2991 2990 2989 2988 2986 2986 2985 2984 2983 2982 2981 2980 2980 2980
3113 3112 3112 3112 3112 3112 3112 3111 3110 3108 3106 3105 3103 3102 3101 3099 3097 3095 3094 3094 3092 3091 3090 3089 3090 3086 3080 3078 3079 3077 3077 3076 3074 3073 3071 3070 3068 3066 3065 3063 3061 3059 3057 3055 3053 3051 3049 3046 3044 3042 3040 3037 3035 3032 3030 3028 3026 3023 3021 3019 3017 3014 3011 3009 3006 3003 3000 2998 2995 2993 2991 2988 2986 2984 2983 2982 2981 2980 2979 2978 2977 2976 2975 2974 2974 2974
3112 3112 3111 3111 3111 3111 3110 3109 3108 3106 3105 3104 3102 3101 3099 3097 3095 3094 3093 3092 3091 3090 3089 3087 3088 3086 3079 3076 3076 3074 3073 3073 3071 3070 3069 3067 3066 3064 3062 3060 3058 3057 3054 3052 3050 3048 3045 3043 3041 3038 3036 3033 3031 3028 3026 3024 3022 3019 3017 3015 3012 3010 3007 3005 3002 2999 2996 2993 2991 2988 2986 2984 2982 2979 2978 2977 2976 2975 2973 2972 2971 2970 2969 2969 2968 2968
3111 3111 3110 3110 3110 3109 3108 3107 3106 3104 3103 3102 3101 3098 3096 3095 3093 3093 3092 3091 3091 3089 3087 3087 3087 3086 3078 3072 3073 3072 3070 3070 3068 3067 3066 3064 3063 3061 3059 3058 3056 3054 3052 3049 3047 3044 3042 3040 3037 3034 3032 3029 3027 3024 3022 3020 3017 3015 3013 3011 3008 3006 3003 3000 2998 2995 2992 2989 2987 2984 2981 2979 2977 2975 2973 2971 2970 2969 2968 2967 2966 2964 2963 2963 2962 2962
3110 3110 3109 3108 3108 3107 3106 3105 3104 3102 3101 3100 3100 3098 3095 3093 3092 3092 3091 3090 3091 3088 3086 3085 3085 3087 3081 3071 3070 3070 3068 3067 3065 3064 3063 3061 3059 3058 3056 3054 3052 3050 3048 3046 3043 3041 3038 3036 3033 3030 3028 3025 3023 3020 3018 3015 3013 3010 3008 3006 3004 3001 2999 2996 2993 2991 2988 2985 2982 2980 2977 2975 2972 2970 2968 2966 2964 2963 2963 2962 2960 2959 2957 2956 2956 2955
3109 3108 3107 3107 3106 3105 3104 3103 3102 3101 3100 3099 3098 3097 3094 3092 3091 3090 3089 3090 3090 3087 3085 3085 3084 3086 3081 3070 3067 3067 3065 3064 3062 3061 3060 3058 3056 3054 3053 3051 3049 3047 3045 3042 3040 3038 3035 3033 3030 3027 3024 3022 3019 3017 3014 3012 3009 3006 3004 3001 2999 2997 2994 2991 2989 2986 2984 2981 2978 2976 2973 2970 2968 2965 2963 2961 2959 2957 2956 2956 2955 2954 2952 2951 2950 2949
3108 3107 3106 3106 3105 3104 3103 3102 3101 3100 3099 3098 3097 3095 3093 3092 3091 3090 3090 3091 3089 3085 3084 3084 3084 3082 3075 3067 3065 3065 3063 3061 3059 3058 3057 3055 3053 3051 3049 3048 3046 3044 3041 3039 3037 3034 3032 3029 3027 3024 3021 3018 3016 3013 3010 3008 3005 3002 3000 2997 2995 2992 2989 2986 2984 2982 2979 2977 2974 2971 2969 2966 2963 2961 2959 2957 2954 2952 2951 2950 2949 2948 2947 2946 2944 2943
3106 3106 3105 3105 3103 3103 3102 3101 3100 3098 3097 3096 3095 3094 3093 3094 3094 3092 3092 3091 3087 3084 3083 3084 3084 3078 3068 3063 3063 3062 3060 3058 3056 3056 3054 3052 3050 3048 3046 3045 3042 3040 3038 3035 3033 3030 3028 3025 3022 3020 3017 3014 3012 3009 3006 3003 3001 2998 2995 2993 2991 2988 2985 2982 2979 2977 2974 2972 2969 2967 2964 2961 2959 2956 2954 2952 2950 2947 2945 2944 2943 2942 2941 2940 2939 2937
3106 3104 3104 3103 3102 3101 3100 3100 3099 3097 3096 3094 3094 3093 3093 3094 3095 3093 3092 3090 3085 3083 3082 3082 3080 3072 3064 3061 3060 3058 3057 3055 3054 3053 3051 3049 3047 3044 3042 3040 3038 3036 3034 3031 3028 3026 3023 3021 3018 3015 3013 3010 3007 3004 3002 2999 2996 2993 2991 2988 2986 2983 2981 2978 2975 2972 2969 2966 2964 2961 2959 2956 2954 2951 2949 2947 2945 2942 2940 2938 2937 2936 2935 2934 2933 2932
3104 3102 3102 3101 3100 3099 3099 3098 3097 3095 3094 3093 3092 3092 3092 3093 3093 3092 3092 3089 3088 3086 3080 3076 3071 3063 3060 3058 3056 3055 3054 3052 3051 3049 3047 3046 3043 3040 3038 3036 3034 3032 3030 3027 3024 3022 3019 3016 3013 3011 3008 3005 3003 3000 2997 2994 2992 2989 2986 2983 2980 2978 2976 2973 2970 2967 2964 2961 2958 2956 2954 2951 2949 2946 2944 2942 2939 2937 2935 2933 2931 2930 2929 2927 2926 2925
3102 3101 3100 3099 3098 3097 3097 3096 3095 3094 3093 3092 3092 3091 3091 3091 3091 3091 3090 3088 3090 3088 3077 3070 3063 3057 3058 3054 3051 3053 3051 3048 3048 3045 3044 3043 3039 3037 3034 3032 3030 3028 3026 3023 3020 3017 3014 3011 3008 3006 3003 3000 2997 2995 2992 2989 2986 2983 2981 2977 2974 2972 2969 2967 2965 2962 2959 2956 2953 2950 2948 2946 2943 2941 2938 2936 2934 2931 2929 2927 2925 2923 2922 2921 2920 2919
3101 3099 3098 3097 3096 3096 3095 3095 3094 3093 3092 3091 3091 3090 3090 3090 3090 3090 3090 3088 3090 3087 3075 3066 3059 3055 3056 3051 3047 3049 3047 3045 3044 3041 3040 3039 3036 3033 3030 3028 3026 3024 3021 3018 3015 3013 3010 3007 3004 3001 2998 2995 2992 2989 2986 2983 2981 2978 2975 2972 2969 2966 2963 2961 2958 2956 2953 2951 2948 2945 2942 2940 2938 2935 2933 2930 2928 2925 2923 2921 2919 2917 2916 2914 2913 2912
3100 3098 3096 3095 3095 3094 3093 3092 3091 3090 3090 3089 3089 3089 3088 3089 3088 3088 3089 3086 3086 3085 3076 3065 3057 3052 3050 3046 3043 3044 3044 3042 3041 3038 3037 3035 3032 3029 3026 3024 3022 3019 3017 3014 3011 3008 3005 3002 2999 2996 2993 2990 2986 2984 2981 2978 2975 2972 2969 2966 2963 2960 2957 2955 2952 2949 2947 2945 2942 2940 2937 2934 2932 2929 2927 2925 2922 2920 2917 2914 2912 2910 2909 2908 2907 2906
3099 3097 3094 3093 3092 3092 3091 3090 3089 3087 3087 3087 3087 3087 3086 3087 3087 3086 3086 3084 3083 3083 3077 3067 3056 3045 3041 3040 3040 3041 3040 3039 3038 3035 3033 3031 3028 3025 3022 3020 3018 3015 3012 3009 3006 3004 3000 2998 2995 2992 2988 2985 2982 2979 2976 2973 2970 2967 2964 2961 2958 2955 2952 2949 2946 2943 2940 2938 2936 2934 2932 2929 2926 2923 2921 2918 2916 2914 2911 2909 2906 2904 2902 2901 2900 2899
3097 3096 3093 3091 3090 3090 3088 3087 3086 3085 3085 3085 3084 3085 3084 3084 3085 3083 3082 3080 3080 3080 3078 3074 3058 3037 3032 3038 3037 3036 3036 3034 3033 3031 3028 3027 3024 3021 3018 3015 3013 3010 3008 3005 3002 2999 2996 2993 2990 2987 2984 2980 2977 2974 2971 2968 2965 2962 2959 2955 2952 2949 2946 2944 2940 2937 2934 2931 2929 2927 2925 2923 2921 2918 2915 2912 2909 2907 2905 2903 2900 2898 2896 2894 2893 2892
3094 3093 3091 3089 3088 3086 3085 3084 3083 3082 3082 3081 3081 3082 3081 3082 3082 3082 3079 3075 3075 3075 3072 3072 3058 3030 3025 3035 3034 3032 3032 3029 3028 3026 3023 3022 3020 3016 3014 3010 3008 3005 3003 3000 2997 2994 2992 2988 2985 2982 2978 2975 2972 2969 2966 2963 2960 2956 2953 2950 2946 2944 2941 2938 2935 2932 2928 2925 2922 2920 2918 2916 2914 2912 2909 2906 2903 2900 2898 2896 2894 2891 2889 2888 2887 2886
3093 3091 3089 3087 3085 3084 3082 3081 3080 3079 3079 3079 3079 3078 3078 3078 3077 3078 3076 3071 3071 3069 3064 3068 3058 3028 3020 3031 3029 3027 3027 3024 3023 3021 3018 3017 3015 3011 3009 3005 3003 3001 2998 2995 2991 2989 2986 2983 2980 2976 2973 2970 2966 2964 2961 2958 2954 2951 2947 2944 2941 2938 2935 2932 2929 2926 2923 2920 2916 2914 2911 2909 2907 2905 2902 2899 2897 2894 2892 2889 2887 2885 2883 2881 2880 2879
3091 3089 3087 3084 3082 3081 3080 3078 3077 3076 3076 3075 3075 3075 3075 3074 3072 3073 3072 3068 3067 3063 3058 3063 3054 3024 3016 3025 3024 3022 3022 3019 3018 3016 3013 3012 3010 3007 3004 3000 2998 2995 2992 2989 2986 2983 2980 2977 2973 2970 2966 2964 2961 2957 2955 2951 2948 2945 2942 2939 2935 2932 2929 2926 2923 2920 2917 2914 2911 2908 2905 2902 2900 2897 2895 2892 2889 2887 2885 2882 2880 2878 2876 2875 2873 2872
3089 3087 3086 3083 3081 3078 3076 3075 3074 3073 3073 3072 3071 3073 3072 3070 3070 3069 3067 3066 3063 3054 3050 3055 3044 3019 3013 3019 3018 3017 3016 3014 3013 3011 3008 3007 3004 3001 2998 2995 2993 2990 2986 2984 2980 2978 2975 2971 2967 2964 2961 2958 2954 2951 2948 2944 2942 2939 2935 2932 2929 2926 2924 2920 2917 2914 2911 2908 2905 2902 2899 2896 2893 2889 2887 2884 2882 2880 2878 2876 2874 2872 2870 2868 2866 2865
3086 3084 3084 3083 3082 3079 3075 3072 3071 3070 3069 3068 3067 3069 3068 3066 3066 3064 3063 3064 3056 3045 3043 3042 3029 3013 3011 3014 3013 3013 3011 3009 3008 3006 3003 3001 2999 2996 2993 2989 2987 2984 2981 2978 2975 2972 2969 2965 2962 2959 2955 2952 2948 2945 2941 2938 2935 2932 2929 2926 2923 2920 2917 2914 2911 2908 2905 2903 2899 2896 2893 2890 2886 2882 2879 2876 2874 2872 2870 2868 2867 2865 2863 2861 2860 2859
3083 3081 3081 3080 3078 3075 3072 3070 3070 3067 3065 3064 3064 3065 3064 3062 3061 3060 3060 3054 3044 3039 3036 3028 3018 3010 3007 3009 3009 3008 3007 3004 3002 3001 2998 2996 2993 2990 2987 2984 2981 2978 2975 2972 2969 2966 2963 2959 2956 2953 2950 2946 2942 2939 2935 2932 2929 2926 2922 2919 2916 2913 2911 2908 2905 2902 2899 2896 2893 2890 2887 2883 2879 2875 2871 2868 2866 2865 2863 2861 2859 2858 2856 2855 2853 2852
3080 3077 3077 3076 3073 3070 3070 3069 3067 3064 3061 3059 3060 3060 3059 3057 3056 3054 3048 3040 3036 3038 3029 3017 3015 3010 3003 3003 3005 3002 3002 3001 2997 2995 2993 2990 2988 2985 2981 2979 2976 2973 2970 2967 2964 2960 2956 2953 2950 2946 2943 2939 2936 2933 2929 2926 2923 2920 2916 2913 2910 2907 2904 2901 2898 2895 2892 2889 2886 2883 2879 2876 2872 2868 2864 2861 2858 2857 2855 2853 2852 2850 2849 2848 2847 2846
3078 3074 3072 3072 3068 3066 3067 3066 3063 3060 3056 3054 3055 3055 3053 3051 3049 3044 3037 3032 3033 3032 3019 3010 3013 3009 3000 3000 3001 2998 2998 2996 2993 2991 2988 2985 2983 2980 2976 2973 2970 2968 2964 2961 2958 2954 2950 2946 2943 2939 2936 2932 2929 2926 2923 2920 2917 2913 2909 2906 2904 2901 2897 2894 2891 2888 2885 2882 2879 2876 2872 2868 2865 2861 2858 2854 2851 2849 2848 2846 2844 2843 2842 2841 2840 2839
3076 3071 3069 3068 3063 3061 3062 3061 3059 3056 3051 3049 3050 3049 3047 3045 3042 3036 3030 3028 3027 3022 3011 3008 3008 3002 2998 2998 2996 2994 2994 2991 2988 2986 2984 2981 2978 2975 2971 2968 2965 2962 2959 2955 2951 2948 2944 2940 2937 2933 2929 2926 2923 2920 2917 2914 2910 2906 2903 2900 2897 2894 2891 2887 2884 2881 2878 2875 2872 2869 2865 2861 2857 2854 2851 2848 2845 2842 2840 2839 2837 2836 2835 2835 2834 2833
3074 3069 3067 3065 3059 3055 3056 3056 3054 3050 3046 3045 3044 3042 3040 3038 3035 3030 3025 3022 3021 3015 3008 3006 3002 2995 2994 2995 2992 2990 2989 2985 2982 2980 2978 2975 2972 2969 2966 2962 2959 2956 2952 2949 2945 2942 2938 2934 2931 2927 2924 2920 2917 2914 2910 2907 2903 2899 2896 2893 2890 2887 2884 2880 2877 2874 2871 2868 2865 2861 2858 2854 2850 2847 2844 2842 2839 2835 2833 2831 2830 2829 2829 2828 2827 2827
3071 3067 3064 3064 3059 3051 3051 3052 3048 3045 3043 3040 3036 3034 3034 3032 3028 3025 3021 3017 3014 3009 3005 3004 2999 2990 2989 2990 2988 2985 2984 2980 2976 2974 2971 2969 2966 2963 2959 2956 2952 2949 2946 2943 2939 2935 2932 2928 2925 2921 2917 2914 2911 2907 2904 2900 2896 2892 2889 2886 2884 2881 2878 2874 2871 2868 2865 2862 2858 2854 2851 2847 2843 2840 2837 2835 2832 2829 2826 2824 2823 2823 2822 2821 2820 2820
3068 3065 3062 3063 3058 3049 3048 3049 3044 3042 3040 3033 3028 3029 3029 3027 3023 3021 3017 3012 3008 3006 3004 2999 2992 2986 2985 2985 2982 2980 2978 2975 2971 2968 2965 2962 2960 2957 2953 2949 2946 2942 2939 2936 2932 2929 2925 2922 2918 2915 2911 2907 2904 2900 2897 2893 2889 2886 2883 2881 2878 2875 2872 2868 2865 2862 2859 2856 2852 2848 2844 2840 2837 2834 2831 2828 2826 2823 2820 2818 2817 2817 2816 2815 2814 2813
3064 3062 3061 3061 3056 3048 3045 3045 3043 3041 3034 3025 3023 3026 3025 3022 3020 3017 3013 3007 3004 3003 3000 2993 2987 2985 2984 2981 2978 2975 2972 2969 2966 2962 2959 2956 2954 2950 2946 2943 2940 2936 2933 2929 2925 2921 2918 2914 2911 2908 2904 2900 2897 2893 2890 2886 2883 2880 2877 2875 2872 2869 2866 2862 2859 2856 2853 2849 2846 2842 2838 2834 2831 2828 2825 2822 2819 2817 2815 2813 2811 2811 2810 2809 2808 2807
3060 3060 3058 3057 3054 3046 3043 3045 3043 3035 3024 3018 3021 3024 3021 3019 3017 3013 3008 3004 3001 2998 2994 2989 2985 2983 2981 2978 2974 2971 2967 2963 2960 2956 2954 2952 2948 2944 2940 2937 2934 2930 2926 2922 2918 2914 2911 2907 2903 2900 2896 2893 2890 2887 2884 2880 2877 2874 2872 2869 2866 2863 2860 2856 2853 2850 2847 2843 2840 2836 2832 2829 2825 2822 2819 2816 2813 2811 2809 2808 2806 2805 2804 2803 2802 2802
3058 3057 3055 3053 3051 3046 3043 3044 3039 3026 3015 3014 3019 3020 3017 3015 3012 3008 3002 2997 2996 2995 2990 2985 2981 2979 2976 2973 2970 2966 2962 2957 2952 2949 2948 2948 2943 2938 2934 2930 2927 2923 2919 2915 2911 2907 2904 2900 2896 2893 2889 2886 2883 2881 2878 2874 2871 2868 2866 2863 2860 2856 2853 2850 2847 2844 2841 2838 2834 2830 2827 2823 2819 2816 2814 2811 2808 2806 2804 2803 2802 2800 2798 2797 2796 2796
3056 3054 3052 3051 3048 3044 3042 3037 3030 3020 3011 3010 3014 3015 3013 3011 3008 3005 2998 2989 2989 2992 2988 2981 2978 2974 2971 2968 2964 2961 2957 2950 2944 2942 2943 2942 2937 2932 2928 2924 2921 2917 2912 2908 2905 2900 2897 2893 2889 2886 2883 2880 2878 2875 2872 2868 2865 2862 2860 2857 2854 2850 2847 2845 2841 2838 2836 2832 2829 2825 2822 2818 2814 2811 2808 2806 2803 2801 2799 2797 2796 2795 2793 2792 2791 2791
3053 3051 3050 3048 3044 3042 3040 3034 3029 3023 3012 3007 3012 3013 3011 3009 3006 3003 2996 2984 2982 2988 2985 2979 2974 2969 2966 2963 2959 2955 2951 2944 2937 2935 2937 2936 2930 2926 2922 2918 2914 2910 2906 2902 2898 2894 2891 2887 2883 2880 2877 2874 2872 2869 2865 2862 2859 2856 2854 2851 2847 2844 2841 2839 2836 2833 2830 2827 2824 2820 2816 2813 2809 2806 2803 2800 2798 2796 2794 2792 2791 2790 2789 2787 2786 2786
3050 3048 3046 3044 3040 3038 3038 3034 3030 3023 3010 3006 3011 3011 3008 3006 3002 2999 2992 2980 2978 2983 2980 2974 2970 2965 2961 2959 2955 2950 2946 2938 2932 2930 2931 2929 2923 2920 2916 2912 2908 2904 2900 2897 2893 2889 2885 2881 2877 2874 2871 2868 2866 2862 2859 2856 2853 2850 2848 2845 2842 2838 2835 2833 2830 2827 2824 2821 2818 2814 2811 2807 2804 2801 2798 2795 2793 2791 2789 2787 2786 2785 2784 2782 2781 2781
3047 3044 3041 3039 3036 3034 3034 3031 3027 3017 3006 3006 3010 3008 3005 3003 2999 2996 2989 2976 2974 2978 2975 2969 2966 2961 2957 2955 2950 2946 2941 2934 2928 2926 2926 2922 2917 2914 2910 2905 2902 2898 2894 2890 2887 2883 2879 2875 2871 2868 2865 2862 2859 2856 2852 2849 2846 2844 2842 2838 2836 2832 2829 2827 2824 2821 2818 2815 2812 2809 2805 2802 2799 2796 2793 2790 2787 2785 2784 2782 2781 2780 2779 2778 2776 2776
3043 3040 3037 3034 3032 3031 3030 3027 3021 3011 3004 3007 3009 3005 3003 2999 2995 2993 2986 2975 2972 2973 2970 2966 2961 2956 2953 2950 2945 2940 2935 2930 2925 2922 2919 2915 2911 2907 2904 2900 2896 2892 2888 2884 2880 2877 2874 2870 2866 2862 2859 2855 2852 2849 2846 2843 2840 2838 2835 2832 2830 2826 2823 2821 2818 2815 2812 2809 2806 2803 2800 2797 2794 2791 2788 2785 2782 2780 2779 2777 2776 2774 2774 2773 2771 2771
3040 3037 3033 3031 3029 3027 3025 3023 3017 3008 3004 3007 3006 3003 3001 2997 2991 2987 2981 2975 2971 2968 2964 2960 2956 2951 2948 2944 2938 2933 2928 2924 2921 2916 2913 2909 2904 2900 2897 2894 2890 2886 2882 2878 2874 2871 2867 2863 2859 2856 2853 2849 2846 2843 2840 2837 2834 2832 2829 2826 2823 2820 2817 2815 2812 2809 2806 2803 2800 2798 2794 2792 2789 2786 2784 2781 2778 2776 2774 2772 2770 2769 2768 2767 2766 2766
3037 3034 3031 3028 3027 3025 3021 3019 3016 3008 3004 3005 3004 3000 2998 2994 2988 2983 2976 2971 2967 2962 2958 2953 2948 2945 2941 2935 2931 2926 2921 2917 2915 2911 2907 2903 2898 2894 2891 2887 2884 2880 2876 2872 2868 2865 2861 2857 2853 2850 2847 2844 2841 2837 2834 2831 2828 2825 2823 2820 2817 2814 2811 2809 2806 2803 2801 2798 2795 2792 2789 2786 2784 2781 2779 2776 2773 2771 2769 2767 2765 2764 2763 2762 2761 2760
3034 3032 3029 3027 3026 3023 3018 3014 3012 3007 3004 3004 3001 2997 2994 2989 2983 2978 2971 2964 2960 2957 2953 2947 2941 2939 2934 2928 2923 2919 2914 2911 2908 2904 2901 2897 2893 2889 2885 2881 2877 2873 2869 2866 2862 2858 2854 2850 2847 2844 2840 2838 2835 2831 2828 2825 2822 2819 2816 2814 2811 2808 2805 2803 2800 2798 2795 2792 2789 2787 2784 2781 2779 2776 2774 2771 2769 2767 2765 2762 2761 2759 2758 2757 2755 2755
3030 3029 3027 3024 3022 3020 3013 3009 3007 3004 3002 3001 2997 2992 2989 2984 2979 2974 2967 2959 2954 2950 2946 2940 2935 2932 2928 2923 2917 2912 2909 2906 2902 2899 2895 2891 2887 2884 2879 2875 2871 2867 2863 2859 2855 2851 2847 2843 2840 2838 2834 2832 2829 2825 2822 2819 2816 2813 2810 2807 2805 2802 2799 2797 2795 2792 2790 2787 2784 2781 2778 2776 2774 2771 2769 2766 2764 2762 2760 2758 2756 2754 2753 2752 2750 2749
3027 3025 3023 3019 3017 3013 3007 3004 3003 3000 2997 2995 2992 2988 2984 2978 2972 2967 2961 2955 2949 2944 2940 2935 2929 2924 2921 2917 2911 2907 2904 2900 2896 2893 2890 2886 2882 2878 2873 2869 2865 2860 2856 2852 2848 2844 2840 2836 2834 2831 2828 2826 2823 2819 2816 2813 2810 2807 2804 2801 2798 2796 2793 2791 2788 2786 2783 2781 2778 2775 2773 2770 2769 2766 2764 2762 2759 2757 2755 2753 2751 2750 2748 2747 2745 2744
3023 3022 3019 3015 3012 3008 3002 3000 2999 2994 2990 2989 2987 2983 2979 2973 2967 2962 2955 2949 2943 2938 2934 2929 2924 2919 2915 2911 2906 2902 2899 2895 2891 2887 2884 2880 2875 2871 2867 2863 2858 2854 2850 2846 2842 2838 2834 2830 2828 2825 2822 2820 2817 2813 2810 2808 2805 2802 2798 2795 2792 2789 2787 2785 2782 2779 2777 2775 2772 2770 2767 2765 2763 2761 2759 2757 2754 2752 2750 2748 2746 2745 2743 2742 2740 2738
3020 3018 3015 3011 3008 3004 3000 2998 2995 2989 2984 2984 2982 2977 2973 2967 2961 2956 2950 2944 2938 2933 2928 2924 2919 2914 2910 2906 2902 2897 2893 2890 2886 2881 2877 2873 2868 2864 2860 2856 2851 2847 2843 2839 2835 2831 2828 2825 2822 2819 2816 2813 2810 2807 2804 2802 2799 2796 2792 2789 2786 2783 2781 2778 2776 2773 2771 2769 2766 2764 2761 2759 2757 2755 2753 2752 2750 2747 2745 2743 2741 2740 2738 2737 2734 2733
3018 3015 3012 3007 3003 3000 2996 2994 2990 2982 2975 2976 2975 2971 2966 2960 2953 2948 2944 2939 2933 2928 2923 2919 2915 2910 2905 2900 2896 2892 2888 2884 2880 2874 2870 2866 2861 2857 2853 2848 2844 2840 2837 2833 2829 2825 2822 2819 2816 2813 2810 2807 2804 2801 2799 2796 2794 2790 2786 2783 2780 2777 2775 2772 2770 2767 2765 2763 2760 2758 2756 2753 2751 2749 2747 2746 2744 2742 2740 2738 2736 2735 2734 2732 2729 2727
3015 3012 3009 3006 3000 2996 2993 2991 2988 2979 2971 2968 2967 2964 2959 2954 2947 2942 2937 2933 2928 2923 2917 2913 2910 2906 2902 2896 2891 2886 2882 2878 2873 2868 2863 2859 2855 2850 2846 2842 2838 2834 2831 2827 2823 2820 2816 2813 2810 2807 2805 2802 2798 2796 2793 2791 2788 2784 2780 2777 2774 2771 2769 2766 2764 2761 2759 2756 2754 2752 2750 2748 2746 2743 2741 2740 2738 2736 2735 2733 2731 2729 2728 2727 2725 2723
3012 3009 3008 3005 3001 2996 2992 2989 2986 2980 2972 2967 2964 2959 2954 2948 2943 2937 2932 2927 2922 2918 2913 2907 2903 2899 2896 2892 2887 2881 2875 2871 2867 2862 2857 2853 2849 2844 2840 2835 2832 2828 2825 2821 2817 2814 2811 2808 2805 2802 2799 2796 2793 2790 2788 2785 2782 2778 2774 2771 2768 2766 2763 2760 2757 2755 2753 2750 2748 2746 2743 2742 2740 2738 2735 2733 2732 2730 2729 2728 2726 2724 2722 2721 2720 2719